User: anonymous   Login
Location: Platte
(43.3870°N, 98.8440°W)
Time: 15:29:10
(UTC-06:00)
Language:

Landsat 7 - Orbit

View from above orbital plane
View from above orbital plane
View from above satellite
View from above satellite

Ground track
Ground track

The orbit data is extracted from the following two-line orbital elements,

1 25682U 99020A   14328.22582016  .00000879  00000-0  20527-3 0  8269
2 25682 098.2239 035.7701 0000757 075.1975 284.9292 14.57105458830292
Epoch (UTC): 24 November 2014 05:25:10
Eccentricity: 0.0000757
inclination: 98.2239°
perigee height: 702 km
apogee height: 703 km
right ascension of ascending node: 35.7701°
argument of perigee: 75.1975°
revolutions per day: 14.57105458
mean anomaly at epoch: 284.9292°
orbit number at epoch: 83029

The dashed part of the orbit path shows where the satellite is in the earth's shadow,  

DLR